Regional Weather Roundup
Issued by NWS Memphis, TN

Home | Current Version | Previous Version | Text Only | Print | Product List | Glossary On
Versions: 1 2 3 4 5 6 7 8 9 10 11 12 13 14 15 16 17 18 19 20 21 22 23 24 25 26 27 28 29 30 31 32 33 34 35 36 37 38 39 40 41 42 43 44 45 46 47 48 49 50
000
ASUS44 KMEG 291310
RWRMEG
MEMPHIS CWA HOURLY WEATHER ROUNDUP
NATIONAL WEATHER SERVICE MEMPHIS TN
700 AM CST MON DEC 29 2014

...WEST TENNESSEE...

CITY           SKY/WX    TMP DP  RH WIND       PRES   REMARKS
MEMPHIS INTL   CLOUDY    38  34  85 NE6       30.20R WCI  33
NWS MEMPHIS      N/A     36 N/A N/A MISG        N/A
JACKSON        LGT RAIN  35  32  88 N9        30.20R WCI  28
LEXINGTON      CLOUDY    34  34 100 NE6       30.16R WCI  29
SAVANNAH       CLOUDY    36  36 100 N5        30.17R WCI  32
DYERSBURG      CLOUDY    34  19  55 NE8       30.24R WCI  27
UNION CITY     CLOUDY    30  28  93 N8        30.22R WCI  23
PARIS          CLOUDY    30  27  86 N6        30.21R WCI  24
HUNTINGDON     CLOUDY    32  28  85 N6        30.20R WCI  26


...EASTERN ARKANSAS...

CITY           SKY/WX    TMP DP  RH WIND       PRES   REMARKS
JONESBORO      CLOUDY    33  27  78 N8        30.24R WCI  26
WEST MEMPHIS   CLOUDY    36  34  92 N9        30.20R WCI  29
BATESVILLE     CLOUDY    32  27  80 NE5       30.24R WCI  27
NEWPORT        CLOUDY    33  29  86 N13       30.26R WCI  24
WALNUT RIDGE   CLOUDY    32  25  74 NE9       30.25R WCI  24
BLYTHEVILLE    CLOUDY    34  29  82 NE9       30.24R WCI  27
SEARCY         CLOUDY    34  28  79 NE10      30.24R WCI  26
STUTTGART      CLOUDY    36  30  80 N9        30.23R WCI  29
PINE BLUFF     CLOUDY    37  32  82 N9        30.22R WCI  30
MONTICELLO     CLOUDY    39  37  92 VRB3      30.20R


...NORTH MISSISSIPPI...

CITY           SKY/WX    TMP DP  RH WIND       PRES   REMARKS
TUPELO         CLOUDY    42  38  85 NE13      30.16R
OXFORD         CLOUDY    37  36  93 N3        30.19R FOG
OLIVE BRANCH   CLOUDY    34  34 100 NE6       30.19R FOG     WCI  29
TUNICA         CLOUDY    37  36  93 N8        30.22R FOG     WCI  31
CLARKSDALE     CLOUDY    37  37 100 N13       30.21R WCI  29
GRENADA        CLOUDY    39  37  93 N6        30.18R WCI  35
GREENWOOD      CLOUDY    42  40  92 N6        30.18R
COLUMBUS       CLOUDY    45  45 100 NW2       30.15R
STARKVILLE     CLOUDY    43  43 100 CALM      30.14R FOG
GOLDEN TRIANGL CLOUDY    45  41  87 N7        30.13R


...SOUTHEAST MISSOURI...

CITY           SKY/WX    TMP DP  RH WIND       PRES   REMARKS
WEST PLAINS    MOCLDY    22  20  92 NE3       30.21R
POPLAR BLUFF   CLOUDY    30  24  78 NE9       30.26R WCI  22
CAPE GIRARDEAU CLOUDY    31  25  78 N9        30.26R WCI  23


...NORTHWEST ALABAMA...

CITY           SKY/WX    TMP DP  RH WIND       PRES   REMARKS
MUSCLE SHOALS  CLOUDY    42  38  85 N5        30.16R


...MIDDLE TENNESSEE...

CITY           SKY/WX    TMP DP  RH WIND       PRES   REMARKS
NASHVILLE      FOG       37  36  96 N6        30.18R VSB 1   WCI  32
CLARKSVILLE    CLOUDY    34  31  88 N10       30.21R WCI  26
COLUMBIA       CLOUDY   N/A N/A N/A N5        30.14S


...WESTERN KENTUCKY...

CITY           SKY/WX    TMP DP  RH WIND       PRES   REMARKS
PADUCAH        CLOUDY    31  25  78 NE8       30.24R WCI  23
FORT CAMPBELL  CLOUDY    34  31  88 N9        30.20R WCI  26


...CENTRAL ARKANSAS...

CITY           SKY/WX    TMP DP  RH WIND       PRES   REMARKS
LITTLE ROCK    CLOUDY    36  28  73 N6        30.23R WCI  31


SKY/WX REPORTED AS FAIR MEANS FEW OR NO CLOUDS BELOW
12 THOUSAND FEET.



USA.gov is the U.S. government's official web portal to all federal, state and local government web resources and services.